CW9676 Weather Reports


time (UTC)temp
F
wind
direction
speed
knots
gust
knots
rain 1hr
in
rain 24hr
in
rain mn
in
humidity
%
barometer
mb
20260507101513 54 253 3.5 5.2 0.00 0.00 0.00 34 1012.2
20260507100503 55 252 4.3 7.0 0.00 0.00 0.00 33 1012.3
20260507095527 54 245 4.3 7.0 0.00 0.00 0.00 33 1012.3
20260507094526 53 264 3.5 5.2 0.00 0.00 0.00 33 1012.3
20260507093517 52 255 2.6 3.5 0.00 0.00 0.00 32 1012.4
20260507092500 53 229 1.7 2.6 0.00 0.00 0.00 31 1012.5
20260507091457 54 263 2.6 3.5 0.00 0.00 0.00 31 1012.4
20260507090521 54 268 2.6 3.5 0.00 0.00 0.00 30 1012.6
20260507085450 55 280 0.9 2.6 0.00 0.00 0.00 29 1012.6
20260507083308 53 261 0.0 1.7 0.00 0.00 0.00 30 1012.8
20260507082319 52 260 0.9 2.6 0.00 0.00 0.00 31 1012.8
20260507080228 54 223 1.7 2.6 0.00 0.00 0.00 29 1013.0
20260507075154 54 231 2.6 5.2 0.00 0.00 0.00 29 1013.1
20260507073020 55 245 3.5 7.0 0.00 0.00 0.00 28 1013.1
20260507065740 56 209 5.2 9.6 0.00 0.00 0.00 27 1013.3
20260507064744 56 243 5.2 9.6 0.00 0.00 0.00 27 1013.3
20260507062556 56 236 5.2 9.6 0.00 0.00 0.00 27 1013.2
20260507061543 55 226 5.2 7.8 0.00 0.00 0.00 27 1013.4
20260507060555 55 252 4.3 7.0 0.00 0.00 0.00 27 1013.5
20260507055535 55 249 4.3 7.0 0.00 0.00 0.00 27 1013.6
20260507054540 55 242 3.5 5.2 0.00 0.00 0.00 27 1013.6
20260507053507 55 261 3.5 4.3 0.00 0.00 0.00 27 1013.6
20260507052520 55 252 2.6 5.2 0.00 0.00 0.00 27 1013.6
20260507051448 55 249 3.5 7.0 0.00 0.00 0.00 27 1013.6
20260507050457 55 241 4.3 7.0 0.00 0.00 0.00 26 1013.5
20260507045516 55 259 4.3 6.1 0.00 0.00 0.00 27 1013.4
20260507044522 54 232 3.5 5.2 0.00 0.00 0.00 27 1013.4
20260507043514 54 229 3.5 4.3 0.00 0.00 0.00 27 1013.4
20260507042506 55 233 2.6 4.3 0.00 0.00 0.00 27 1013.3
20260507041521 55 221 1.7 3.5 0.00 0.00 0.00 26 1013.3
20260507040502 55 238 2.6 4.3 0.00 0.00 0.00 26 1013.2
20260507035454 56 230 3.5 6.1 0.00 0.00 0.00 26 1013.0
20260507034438 55 211 3.5 6.1 0.00 0.00 0.00 26 1012.8
20260507033501 56 226 3.5 5.2 0.00 0.00 0.00 25 1012.7
20260507032444 56 210 3.5 5.2 0.00 0.00 0.00 25 1012.6
20260507031411 56 223 3.5 5.2 0.00 0.00 0.00 25 1012.4
20260507030351 56 221 2.6 5.2 0.00 0.00 0.00 24 1012.2
20260507024217 57 214 3.5 7.8 0.00 0.00 0.00 23 1011.8
20260507023228 58 211 3.5 7.8 0.00 0.00 0.00 22 1011.7
20260507022206 58 182 5.2 10.4 0.00 0.00 0.00 22 1011.5
20260507021144 59 217 5.2 10.4 0.00 0.00 0.00 21 1011.3
20260507020138 60 213 5.2 11.3 0.00 0.00 0.00 20 1011.3
20260507015113 60 146 6.1 11.3 0.00 0.00 0.00 19 1011.2
20260507014048 61 179 7.0 12.2 0.00 0.00 0.00 19 1011.0
20260507013046 62 176 7.8 14.8 0.00 0.00 0.00 18 1010.9
20260507012041 63 195 7.8 14.8 0.00 0.00 0.00 18 1010.7
20260507005948 64 177 7.0 13.0 0.00 0.00 0.00 17 1010.6
20260507004930 65 140 6.1 14.8 0.00 0.00 0.00 17 1010.5
20260507003951 65 160 7.8 14.8 0.00 0.00 0.00 18 1010.4
20260507002939 65 163 7.8 14.8 0.00 0.00 0.00 19 1010.2
20260507001916 66 163 7.8 14.8 0.00 0.00 0.00 18 1010.2
20260507000903 66 148 7.8 14.8 0.00 0.00 0.00 18 1010.0
20260506235902 66 156 7.0 16.5 0.00 0.00 0.00 18 1010.0
20260506234902 66 142 7.8 16.5 0.00 0.00 0.00 18 1010.0
20260506232810 66 182 7.8 16.5 0.00 0.00 0.00 17 1009.9
20260506231811 66 192 9.6 14.8 0.00 0.00 0.00 18 1009.8
20260506230740 66 150 8.7 17.4 0.00 0.00 0.00 17 1009.8
20260506225707 67 180 7.8 17.4 0.00 0.00 0.00 17 1009.9
20260506224647 67 234 7.8 15.6 0.00 0.00 0.00 17 1009.9
20260506223652 68 174 7.8 20.0 0.00 0.00 0.00 17 1010.0
20260506222649 66 237 11.3 20.0 0.00 0.00 0.00 17 1010.0
20260506220457 66 156 9.6 18.2 0.00 0.00 0.00 16 1010.1
20260506215445 66 169 10.4 18.2 0.00 0.00 0.00 17 1010.1
20260506214458 67 194 7.0 15.6 0.00 0.00 0.00 17 1010.1
20260506213518 66 195 7.8 15.6 0.00 0.00 0.00 17 1010.3
20260506212540 65 180 7.8 15.6 0.00 0.00 0.00 20 1010.3
20260506210349 66 159 7.0 18.2 0.00 0.00 0.00 20 1010.9
20260506204309 65 164 7.8 15.6 0.00 0.00 0.00 22 1010.8
20260506203311 65 203 8.7 15.6 0.00 0.00 0.00 22 1010.9
20260506202247 65 178 7.8 19.1 0.00 0.00 0.00 23 1011.0
20260506201308 65 127 8.7 19.1 0.00 0.00 0.00 23 1010.9
20260506195152 63 148 8.7 18.2 0.00 0.00 0.00 24 1011.0
20260506194121 64 173 7.8 18.2 0.00 0.00 0.00 24 1011.0
20260506192030 63 4 7.8 15.6 0.00 0.00 0.00 26 1011.2
20260506184838 63 225 7.0 13.9 0.00 0.00 0.00 29 1011.4
20260506183829 62 238 6.1 14.8 0.00 0.00 0.00 29 1011.4
20260506182828 61 164 7.0 14.8 0.00 0.00 0.00 32 1011.6
20260506181844 60 150 6.1 12.2 0.00 0.00 0.00 30 1011.8
20260506180838 60 163 7.0 14.8 0.00 0.00 0.00 30 1012.0
20260506175825 59 165 7.8 14.8 0.00 0.00 0.00 31 1012.1
20260506173717 59 213 7.0 13.0 0.00 0.00 0.00 29 1012.2
20260506172702 57 227 7.0 13.0 0.00 0.00 0.00 29 1012.2
20260506171715 57 183 7.0 13.0 0.00 0.00 0.00 33 1012.1
20260506170731 57 200 6.1 12.2 0.00 0.00 0.00 32 1012.0
20260506165700 56 238 7.0 15.6 0.00 0.00 0.00 35 1012.0
20260506164717 56 254 7.0 15.6 0.00 0.00 0.00 35 1012.0
20260506162624 54 194 7.0 13.0 0.00 0.00 0.00 40 1011.8
20260506161610 55 213 5.2 13.9 0.00 0.00 0.00 41 1011.8
20260506160606 53 168 8.7 15.6 0.00 0.00 0.00 42 1011.7
20260506155554 53 213 9.6 16.5 0.00 0.00 0.00 44 1011.6
20260506154540 53 233 7.8 16.5 0.00 0.00 0.00 43 1011.6
20260506153539 53 225 7.8 15.6 0.00 0.00 0.00 44 1011.7
20260506152542 52 177 7.8 17.4 0.00 0.00 0.00 45 1011.5
20260506151511 52 192 7.8 15.6 0.00 0.01 0.00 45 1011.5
20260506150437 51 202 7.8 14.8 0.00 0.01 0.00 48 1011.5
20260506145445 51 223 8.7 15.6 0.00 0.01 0.00 49 1011.4
20260506144429 50 160 8.7 17.4 0.00 0.01 0.00 49 1011.3
20260506143433 50 233 9.6 17.4 0.00 0.01 0.00 52 1011.4
20260506142410 49 163 8.7 16.5 0.00 0.01 0.00 53 1011.3
20260506141340 49 222 7.8 16.5 0.00 0.01 0.00 55 1011.1
20260506140330 49 225 9.6 14.8 0.00 0.01 0.00 57 1011.2
20260506135346 48 237 7.8 14.8 0.00 0.01 0.00 58 1011.1
20260506134350 47 248 6.1 14.8 0.00 0.01 0.00 59 1011.1
20260506131042 45 199 4.3 8.7 0.00 0.01 0.00 67 1011.0
20260506130017 44 213 3.5 7.8 0.00 0.01 0.00 68 1010.9
20260506125025 44 4 3.5 9.6 0.00 0.01 0.00 68 1010.7
20260506124018 44 240 5.2 9.6 0.00 0.01 0.00 68 1010.6
20260506123026 44 246 4.3 8.7 0.00 0.02 0.00 69 1010.4
20260506122034 44 239 5.2 11.3 0.00 0.02 0.00 68 1010.3
20260506121041 44 229 4.3 11.3 0.00 0.02 0.00 69 1010.1
20260506120038 44 210 4.3 7.0 0.00 0.03 0.00 68 1010.0
20260506115025 45 230 5.2 12.2 0.00 0.03 0.00 67 1009.9
20260506112856 45 219 6.1 16.5 0.00 0.03 0.00 66 1009.7
20260506111832 45 233 7.8 16.5 0.00 0.03 0.00 66 1009.6
20260506110832 46 263 7.8 13.9 0.00 0.03 0.00 66 1009.5
20260506104648 46 218 7.8 14.8 0.00 0.03 0.00 65 1009.5
20260506103633 46 273 8.7 14.8 0.00 0.03 0.00 65 1009.4
20260506102611 46 222 8.7 13.9 0.00 0.03 0.00 65 1009.4